Miscellaneous Local Product
Issued by NWS Hastings, NE

Home | Current Version | Previous Version | Text Only | Print | Product List | Glossary Off
Versions: 1 2 3 4 5 6 7 8 9 10 11 12 13 14 15 16 17 18 19 20 21 22 23 24 25 26 27 28 29 30 31 32 33 34 35 36 37 38 39 40 41 42 43 44 45 46 47 48 49 50

000
AXUS43 KGID 221102
MISGRI

GID CWA HOURLY WEATHER ROUNDUP
NATIONAL WEATHER SERVICE HASTINGS NE
600 AM CDT MON AUG 22 2016

NOTE: "FAIR" INDICATES FEW OR NO CLOUDS BELOW 12,000 FEET WITH NO
SIGNIFICANT WEATHER AND/OR OBSTRUCTIONS TO VISIBILITY.

...SOUTH CENTRAL NEBRASKA...

CITY           SKY/WX    TMP DP  RH WIND       PRES   REMARKS
GRAND ISLAND   CLEAR     65  52  62 S16       29.97S
HASTINGS       CLEAR     64  51  62 S9        29.99F
KEARNEY        CLEAR     63  50  63 S14       29.97S
ORD            CLEAR     64  51  62 SE6       29.92S
YORK           CLEAR     61  55  82 S10       30.00S
AURORA         PTCLDY    63  54  72 S10       29.99S
LEXINGTON      CLEAR     62  53  72 S12       29.94F
HOLDREGE       CLEAR     62  50  65 S12G17    29.97S
HEBRON         PTCLDY    62  54  76 S7        30.02S

...NEBRASKA PANHANDLE...

CITY           SKY/WX    TMP DP  RH WIND       PRES   REMARKS
CHADRON        CLEAR     54  46  74 NE3       29.78F
ALLIANCE       CLEAR     56  53  90 SE8       29.86F
SCOTTSBLUFF    CLOUDY    61  52  72 CALM      29.87S
SIDNEY         CLEAR     59  54  83 SW7       29.92F

...WESTERN AND NORTH CENTRAL NEBRASKA...

CITY           SKY/WX    TMP DP  RH WIND       PRES   REMARKS
VALENTINE      CLEAR     66  55  67 SW14      29.82S
AINSWORTH      CLEAR     65  56  74 S17       29.85S
ONEILL         CLEAR     66  52  61 S10G16    29.89S
BROKEN BOW     CLEAR     62  54  74 S14       29.93S
IMPERIAL       CLEAR     63  56  78 S7        29.92S
NORTH PLATTE   CLEAR     65  56  72 SE7       29.91S
MCCOOK         CLEAR     68  58  70 S18       29.92F

...EASTERN NEBRASKA...

CITY           SKY/WX    TMP DP  RH WIND       PRES   REMARKS
NORFOLK        PTCLDY    64  52  64 S18G25    29.94S
SO SIOUX CITY  CLEAR     60  56  86 E9        29.95F
TEKAMAH        CLEAR     58  55  90 SE7       29.99F
COLUMBUS       PTCLDY    64  48  55 S10       29.98S
ALBION         PTCLDY    61  53  73 S7        29.95S
OMAHA EPPLEY   PTCLDY    64  56  75 S12       30.02S
OFFUTT AFB     CLEAR     58  57  96 E3        30.02S
MILLARD        CLEAR     63  56  80 E5        30.02S
LINCOLN        CLEAR     61  55  81 S9        30.01S
NEBRASKA CITY  CLEAR     59  55  89 S8        30.04S
BEATRICE       CLEAR     62  55  77 S8        30.03S
FALLS CITY     CLEAR     61  56  83 S7        30.06R

...NORTHERN KANSAS...

CITY           SKY/WX    TMP DP  RH WIND       PRES   REMARKS
GOODLAND       CLEAR     60  55  83 S15       29.97S
HILL CITY      CLEAR     65  53  65 VRB6      29.99F
NORTON         SUNNY     66  52  59 S10       29.96S
SMITH CENTER   CLEAR     61  50  67 SE9       30.01F
BELOIT         PTCLDY    61  54  77 CALM      30.02S
HAYS           PTCLDY    63  45  51 S9        30.03S
RUSSELL        CLEAR     63  50  62 S14       30.02S
CONCORDIA      CLOUDY    64  52  64 S21       30.03S
SALINA         CLOUDY    64  54  69 S10       30.05F
TOPEKA           N/A     58  53  84 CALM      30.09R



USA.gov is the U.S. government's official web portal to all federal, state and local government web resources and services.